Flag for Germany Weather past 2 weeks in Hameln, Lower Saxony, Germany

Now
64 °F

Partly sunny.


Feels Like: 64 °F
Forecast: 56 / 68 °F
Wind: 8 mph from Southwest

Location: Bueckeburg

Current Time: Aug 29, 2014 at 11:13:54 PM

Latest Report: Aug 29, 2014 at 8:20 PM


Visibility: N/A

Pressure: 29.95 "Hg

Humidity: 78%

Dew point: 57 °F

Location of HamelnLocation

Historic Weather in Hameln — Graph

°F

Hameln temperature yesterday

Maximum temperature yesterday: 75 °F (at 5:20 PM)
Minimum temperature yesterday: 50 °F (at 2:20 AM)
Average temperature yesterday: 63 °F

Past Weeks' High & Low Weather Summary

 TemperatureHumidityPressure
High75 °F (Aug 28, 5:20 PM)100% (Aug 27, 3:20 AM)30.04 "Hg (Aug 27, 3:20 AM)
Low45 °F (Aug 27, 3:20 AM)33% (Aug 27, 6:20 PM)29.59 "Hg (Aug 18, 8:20 AM)
Average58 °F76%29.89 "Hg
* Reported Aug 14 8:20 PM — Aug 29 8:20 PM, Hameln, Weather by CustomWeather, © 2014

Note: Actual official high and low records may vary slightly from our data, if they occured in-between our weather recording intervals... More about our weather records

Advertising

Hameln weather history for previous 24 hours

 ConditionsComfort  
Time TempWeatherWind HumidityBarometerVisibility
8:20 PM
Aug 29
64 °FPartly sunny.8 mph78%29.95 "HgN/A
7:20 PM66 °FBroken clouds.9 mph73%29.95 "HgN/A
6:20 PM68 °FPartly sunny.10 mph69%29.95 "HgN/A
5:20 PM70 °FScattered clouds.13 mph60%29.95 "HgN/A
4:20 PM72 °FScattered clouds.14 mph53%29.98 "HgN/A
3:20 PM72 °FPartly sunny.15 mph53%29.98 "HgN/A
2:20 PM72 °FScattered clouds.14 mph53%29.95 "HgN/A
1:20 PM70 °FPassing clouds.16 mph57%29.95 "HgN/A
12:20 PM68 °FPassing clouds.12 mph69%29.95 "HgN/A
11:20 AM64 °FBroken clouds.13 mph83%29.95 "HgN/A
10:20 AM64 °FBroken clouds.12 mph83%29.95 "Hg5 mi
9:20 AM63 °FBroken clouds.7 mph88%29.95 "Hg4 mi
8:20 AM61 °FLight rain. Broken clouds.6 mph94%29.95 "Hg4 mi
7:20 AM61 °FPartly cloudy.10 mph94%29.95 "Hg4 mi
6:20 AM63 °FPartly cloudy.9 mph94%29.92 "Hg4 mi
5:20 AM63 °FRain. Partly cloudy.8 mph94%29.92 "Hg4 mi
4:20 AM64 °FLight rain. Mostly cloudy.8 mph83%29.92 "HgN/A
3:20 AM64 °FPartly cloudy.8 mph78%29.92 "HgN/A
2:20 AM64 °FPassing clouds.7 mph78%29.92 "HgN/A
1:20 AM64 °FPassing clouds.7 mph78%29.95 "HgN/A
12:20 AM66 °FPassing clouds.6 mph73%29.95 "HgN/A
11:20 PM
Aug 28
66 °FPartly cloudy.3 mph73%29.95 "HgN/A
Weather by CustomWeather, © 2014

See weather overviewHow to use our weather pages